Regional Weather Roundup
Issued by NWS

Home | Current Version | Previous Version | Graphics & Text | Print | Product List | Glossary On
Versions: 1 2 3 4 5 6 7 8 9 10 11 12 13 14 15 16 17 18 19 20 21 22 23 24 25 26 27 28 29 30 31 32 33 34 35 36 37 38 39 40 41 42 43 44 45 46 47 48 49 50
000
ASUS43 KOAX 301510
RWRNE

WEATHER ROUNDUP FOR NEBRASKA
NATIONAL WEATHER SERVICE OMAHA NE
1000 AM CDT SUN AUG 30 2015

NOTES: SATELLITE DATA IS BEING USED TO AUGMENT CLOUD COVER ABOVE
       12000 FEET.
       "FAIR" INDICATES FEW OR NO CLOUDS BELOW 12,000 FEET WITH NO
       SIGNIFICANT WEATHER AND/OR OBSTRUCTIONS TO VISIBILITY.

  * THESE STATIONS DO NOT REPORT WEATHER SUCH AS RAIN...SNOW OR FOG.

NEZ001>004-019>022-054>056-301600-
NEBRASKA PANHANDLE

CITY           SKY/WX    TMP DP  RH WIND       PRES   REMARKS
SCOTTSBLUFF    SUNNY     70  47  43 SE9       29.98F
ALLIANCE       MOSUNNY   75  46  35 S17       29.98F
CHADRON        PTSUNNY   79  47  32 S7        29.89S
KIMBALL        MOSUNNY   72  45  38 SW7       30.04F
SIDNEY         SUNNY     74  46  36 S16       30.04S
$$

NEZ057>060-069>072-079>082-301600-
SOUTHWEST NEBRASKA

CITY           SKY/WX    TMP DP  RH WIND       PRES   REMARKS
NORTH PLATTE   SUNNY     70  54  56 S6        30.01F
IMPERIAL       SUNNY     74  49  41 S14       30.03F
LEXINGTON      SUNNY     68  63  83 S5        30.04S
MCCOOK         SUNNY     69  54  58 CALM      30.03F
OGALLALA       SUNNY     70  52  52 SW5       30.02S
$$

NEZ005>010-023>029-035>040-094-301600-
NORTH CENTRAL NEBRASKA

CITY           SKY/WX    TMP DP  RH WIND       PRES   REMARKS
VALENTINE      SUNNY     76  52  43 SW13      29.94S
AINSWORTH      SUNNY     71  56  58 S10       29.97S
BROKEN BOW     SUNNY     69  63  81 SE5       30.02S
O`NEILL        SUNNY     71  64  80 S8        29.98F
ORD            SUNNY     67  61  81 S7        30.00F
THEDFORD       SUNNY     73  53  50 SW12      30.01R
$$

NEZ041-046>049-061>064-073>077-083>087-301600-
SOUTH CENTRAL NEBRASKA

CITY           SKY/WX    TMP DP  RH WIND       PRES   REMARKS
GRAND ISLAND   PTSUNNY   66  62  87 S9        30.05S
AURORA         CLOUDY    64  64 100 S8        30.05S FOG
HASTINGS       CLOUDY    63  62  97 S7        30.05S FOG
HEBRON         CLOUDY    61  61 100 S5        30.07F FOG
HOLDREGE       SUNNY     65  62  87 SW5       30.05S
KEARNEY *      SUNNY     64  61  88 SW6       30.04S
YORK           FOG       63  63 100 S7        30.06S VSB 3/4
$$

NEZ011>018-030>034-042>045-301600-
NORTHEAST NEBRASKA

CITY           SKY/WX    TMP DP  RH WIND       PRES   REMARKS
NORFOLK        CLOUDY    64  63  96 S8        30.02S
ALBION         CLOUDY    66  62  89 S8        30.02F
BLAIR          CLOUDY    62  61  95 S7        30.06R FOG
COLUMBUS *     CLOUDY    64  59  82 S7        30.04S
FREMONT        CLOUDY    64  62  94 SW5       30.06R FOG
TEKAMAH        CLOUDY    63  62  97 S6        30.05R FOG
WAYNE          CLOUDY    64  63  96 S9        30.03S
$$

NEZ050>053-065>068-078-088>093-301600-
SOUTHEAST NEBRASKA

CITY           SKY/WX    TMP DP  RH WIND       PRES   REMARKS
LINCOLN        CLOUDY    64  62  93 S8        30.07R FOG
OMAHA EPPLEY   CLOUDY    65  62  90 S12       30.06S FOG
BEATRICE       CLOUDY    62  62  99 SW3       30.07S FOG
FALLS CITY     FOG       63  63 100 CALM      30.07R VSB 1/2
NEBRASKA CITY  CLOUDY    62  62  99 CALM      30.08R
PLATTSMOUTH    CLOUDY    64  63  96 S5        30.07S FOG
$$

NEZ044-045-051>053-067-301600-
OMAHA AREA

CITY           SKY/WX    TMP DP  RH WIND       PRES   REMARKS
OMAHA EPPLEY   CLOUDY    65  62  90 S12       30.06S FOG
BLAIR          CLOUDY    62  61  95 S7        30.06R FOG
FREMONT        CLOUDY    64  62  94 SW5       30.06R FOG
MILLARD        CLOUDY    65  62  90 S3        30.06S
OFFUTT AFB     CLOUDY    65  64  97 S7        30.05S
PLATTSMOUTH    CLOUDY    64  63  96 S5        30.07S FOG
WAHOO          CLOUDY    64  62  95 S7        30.07R FOG
$$



USA.gov is the U.S. government's official web portal to all federal, state and local government web resources and services.